Theta_e
313 316 318 321 323 325 326 326 326 326 325 325 325 325 322 319 314 313 313 316 318 323 326 322 326 329 329 329 330 328 329 329 327 328 329 329 329 322 317 316 320 319 317 318 317 316 317 317 317 320 322 321 321 321 318 316 316 314 315 320 322 321 316 315 315 318 321 323 322 319 318 315 314 313
309 312 313 315 317 322 324 325 326 326 325 325 325 325 324 323 318 317 314 315 320 320 325 326 325 328 329 329 328 329 328 327 327 329 329 329 329 320 316 315 314 315 316 316 313 313 314 317 319 322 321 320 318 317 315 314 314 314 318 321 322 319 316 315 315 317 318 318 318 317 314 311 310 310
307 308 309 312 313 316 319 323 325 326 325 325 325 325 325 323 322 319 317 313 319 323 321 325 328 327 328 329 329 328 328 327 327 328 328 329 324 321 318 315 314 315 314 313 314 315 313 314 316 319 320 320 318 316 315 315 315 317 319 318 318 318 317 316 316 319 320 321 320 318 314 311 313 313
306 307 308 309 312 314 316 320 323 325 325 325 325 325 324 324 323 322 318 315 315 321 323 325 326 328 327 328 327 327 328 327 323 328 328 329 323 324 324 314 314 314 313 313 314 317 314 312 314 317 319 319 318 316 317 316 317 317 315 313 315 314 315 315 315 319 321 322 320 318 313 315 316 316
305 306 307 309 312 314 316 318 321 323 325 324 325 325 325 323 323 322 319 316 316 320 322 324 324 327 328 326 328 327 327 327 326 325 328 328 327 326 325 321 314 313 313 312 312 312 312 312 316 318 318 319 318 316 315 313 313 311 312 311 313 312 314 315 314 317 321 321 319 316 313 313 314 316
305 307 307 309 308 310 312 315 318 322 324 323 323 324 323 323 322 323 320 318 317 316 319 320 324 325 328 325 329 326 325 325 326 325 327 328 327 326 325 323 320 312 313 312 311 312 311 310 313 313 313 313 312 312 310 310 310 310 310 306 310 312 313 314 313 316 319 320 318 314 314 314 315 316
305 304 305 306 306 307 307 309 310 313 316 319 322 323 324 323 323 322 322 320 317 317 318 320 320 323 325 325 326 328 327 326 325 324 325 326 326 326 325 324 323 312 311 310 310 310 310 310 311 311 311 310 310 309 308 309 309 308 308 305 307 310 312 312 313 315 319 319 316 314 313 314 316 315
303 303 303 303 304 305 305 305 306 308 307 307 311 319 323 322 322 323 322 322 320 319 317 318 320 322 323 324 327 327 327 325 324 324 325 326 326 326 325 325 325 316 310 310 310 310 310 309 311 310 310 309 309 308 308 308 307 307 306 306 307 307 309 308 309 311 315 316 314 313 313 316 317 317
301 301 301 301 302 303 303 303 303 304 302 303 305 307 314 321 322 322 322 321 321 319 317 317 320 322 323 325 326 326 324 324 324 324 324 324 325 325 325 326 326 316 310 310 310 309 309 309 310 310 309 309 308 307 307 307 307 306 306 306 306 306 307 308 309 311 312 311 311 314 313 314 317 317
300 299 299 300 301 302 301 301 302 302 300 299 300 302 305 309 318 321 321 321 320 320 319 318 317 320 321 322 323 325 325 322 320 321 323 324 324 324 323 324 325 322 315 315 314 310 309 309 310 310 309 308 307 307 306 306 306 306 306 305 306 305 306 307 308 309 308 309 310 312 311 311 316 316
298 298 298 299 300 301 301 300 300 300 298 297 297 300 301 303 304 311 320 320 320 319 318 318 318 318 321 322 320 324 325 324 322 319 319 318 322 323 322 320 322 320 318 315 312 314 315 313 313 309 307 307 307 306 306 306 306 305 305 304 303 303 303 304 305 308 308 309 308 308 306 306 309 314
297 297 297 298 299 300 301 300 299 299 297 297 296 297 298 299 300 303 310 318 319 318 318 317 317 318 318 320 322 324 323 321 320 321 318 315 316 318 321 321 319 318 317 316 317 312 311 311 311 307 307 307 307 306 306 307 307 305 304 302 303 304 303 303 304 306 307 307 305 304 302 303 305 306
296 296 296 297 298 301 303 300 299 298 297 296 294 295 296 297 298 299 303 311 318 318 318 317 318 318 318 318 319 318 316 315 316 320 320 318 319 319 318 320 322 318 317 315 316 315 315 316 314 313 314 313 310 309 308 309 307 305 303 303 303 304 304 303 305 305 305 306 305 303 302 302 303 301
295 295 295 297 301 300 300 299 297 295 295 296 295 295 295 295 296 297 300 304 312 317 317 317 317 316 316 317 319 318 318 320 320 319 318 316 317 317 316 317 319 318 318 315 313 316 316 316 313 312 312 316 313 314 311 313 310 306 302 303 303 303 303 303 304 304 304 304 304 303 301 300 299 300
294 294 295 295 298 298 298 297 295 294 294 293 293 294 295 296 296 297 299 302 307 313 316 317 317 316 316 317 319 319 319 319 319 317 318 317 315 314 312 309 312 317 318 316 314 313 315 316 312 312 313 315 315 316 315 308 306 304 302 303 303 303 303 303 303 303 303 302 302 301 299 299 299 300
293 293 293 294 295 296 296 296 294 294 293 292 292 292 293 294 295 296 299 302 304 308 313 316 317 317 316 317 318 318 318 317 317 317 317 316 314 314 313 313 311 315 319 315 313 312 314 316 314 312 314 316 315 315 311 305 304 303 303 303 302 302 302 302 303 302 302 301 301 299 298 298 298 298
293 293 293 293 294 295 298 296 293 292 292 293 293 293 294 295 296 294 294 296 303 307 308 311 316 317 317 317 317 319 319 318 316 316 315 315 315 315 314 315 314 312 318 316 312 311 312 314 312 312 314 316 316 314 307 305 304 303 303 302 302 302 301 302 302 302 301 301 300 299 299 299 298 298
292 292 292 292 292 293 293 293 292 291 291 291 292 293 294 296 297 297 297 297 299 301 306 309 312 318 319 317 318 320 318 317 315 315 314 315 314 315 315 317 315 314 317 315 313 310 308 312 313 312 314 316 316 316 310 303 303 303 302 302 301 301 301 301 301 301 300 299 298 298 299 299 298 298
292 291 292 292 292 291 291 292 292 291 290 291 291 292 293 294 296 297 299 301 303 305 309 310 311 314 319 320 320 321 320 318 318 318 317 317 316 316 313 310 311 312 317 317 314 309 308 311 311 311 314 315 315 316 307 303 302 302 302 301 301 300 300 300 300 299 299 298 298 297 297 297 297 297
292 292 292 292 291 291 291 292 290 291 291 291 291 291 292 294 295 297 299 297 298 301 303 306 311 316 318 311 318 319 320 319 319 316 315 315 313 312 311 311 308 310 313 315 313 310 306 310 311 310 311 312 312 313 314 302 303 302 301 301 300 300 300 299 298 298 298 297 297 297 296 296 295 295
291 291 292 292 291 291 291 291 289 289 291 290 290 290 291 292 293 294 297 296 296 296 296 296 296 296 296 297 297 301 305 312 315 314 313 311 312 310 309 310 306 308 309 312 313 308 304 306 310 307 307 308 309 308 310 309 303 302 301 300 300 300 299 299 298 297 297 297 297 296 295 295 295 295
291 291 294 295 291 290 291 290 289 289 291 290 290 290 290 290 291 292 294 295 296 296 296 297 297 296 296 297 297 297 299 303 308 313 311 313 313 310 310 309 307 307 307 310 313 309 305 306 308 302 299 300 300 303 303 306 305 302 301 300 300 300 299 298 297 297 297 297 296 295 295 295 296 298
290 290 292 293 292 292 291 289 289 289 290 290 290 290 290 289 289 291 292 293 294 296 298 300 305 305 303 305 306 308 299 299 307 315 315 314 313 311 310 310 306 303 304 309 312 308 303 304 305 302 300 299 298 297 299 302 305 305 306 304 303 300 299 297 296 297 297 296 296 296 295 295 297 299
289 290 290 291 290 289 289 289 289 289 289 290 291 291 289 288 288 291 292 295 298 300 299 299 303 305 304 304 305 307 308 304 310 313 315 314 314 313 311 310 307 306 306 307 310 310 304 305 303 304 304 299 296 297 298 301 304 305 306 304 303 300 299 297 296 296 296 296 296 296 296 296 297 299
288 288 289 290 291 289 289 289 289 289 289 290 291 290 289 289 290 291 294 297 298 300 301 303 302 302 302 302 302 302 304 306 308 311 311 313 314 314 312 310 308 310 307 306 305 308 301 304 302 302 299 299 298 295 297 299 301 303 304 304 303 301 302 302 300 298 296 295 295 295 295 296 296 298
288 288 289 290 290 289 289 289 289 289 289 289 291 289 288 289 289 292 295 297 298 297 297 298 298 298 298 299 299 299 300 300 301 305 309 310 313 315 315 313 310 308 306 306 302 308 303 303 303 302 300 297 296 297 294 296 299 301 303 304 303 302 303 301 299 297 297 297 297 296 296 295 296 296
288 289 289 291 291 289 289 289 289 289 289 290 289 288 288 289 289 292 294 294 296 295 295 295 295 295 296 296 296 297 298 299 300 301 304 307 309 310 310 311 311 312 308 305 308 309 306 304 304 302 299 299 295 295 295 294 295 298 299 300 300 301 301 300 296 296 297 297 297 295 294 294 293 293
289 289 290 290 289 289 289 289 289 289 289 289 289 288 289 289 290 292 292 292 293 293 293 293 293 294 295 295 296 296 297 298 299 300 301 303 304 307 307 304 303 305 306 307 308 309 307 304 303 304 302 298 296 294 294 296 295 296 295 297 298 298 298 298 296 297 297 297 297 297 297 296 296 295
290 289 289 289 289 289 289 289 289 290 290 289 289 289 289 291 290 290 290 291 292 291 291 292 293 293 294 295 296 297 298 298 299 299 300 300 301 302 302 301 300 302 306 306 308 309 307 305 304 304 302 301 298 297 296 293 294 294 295 294 293 295 296 297 297 296 296 297 297 297 296 296 296 297
289 289 289 289 289 289 290 290 290 290 290 289 289 289 290 289 289 289 289 289 289 289 290 290 291 292 294 295 296 296 297 296 296 297 297 299 299 301 302 301 300 300 302 305 308 308 307 306 304 303 301 301 300 297 296 294 293 294 294 294 294 295 297 297 297 297 296 295 296 296 296 297 297 297
290 290 289 289 288 289 289 289 289 289 290 289 290 290 289 289 289 289 289 289 288 289 290 290 291 292 293 295 295 294 294 294 295 296 296 296 296 297 299 299 297 298 300 301 303 307 306 306 305 304 301 299 299 298 297 297 294 294 295 295 295 292 295 297 297 296 297 296 295 295 295 296 296 296
290 289 289 289 290 289 289 289 289 289 289 289 288 289 289 289 289 290 290 289 289 289 289 290 291 291 292 292 292 293 293 293 294 295 295 295 295 295 296 295 294 296 298 300 301 302 301 305 304 304 303 300 298 297 298 296 295 295 294 295 296 296 296 296 296 296 296 296 295 294 294 295 294 295
290 289 288 288 288 288 287 287 288 288 288 288 288 288 288 288 288 288 287 286 287 288 288 287 288 288 290 291 291 292 292 292 293 294 294 294 294 294 294 292 292 293 294 296 297 298 299 299 300 302 301 301 300 298 296 294 295 295 294 294 295 294 295 296 295 295 296 295 293 292 291 292 293 293
288 287 287 287 287 286 287 286 286 287 287 287 287 287 287 288 287 287 287 287 287 287 287 287 287 287 288 289 289 290 290 291 292 292 291 292 293 292 292 291 292 292 292 293 295 296 297 298 298 297 297 296 297 297 298 295 294 295 295 295 294 293 294 295 295 296 295 294 292 290 290 290 291 292
287 286 286 286 287 286 287 286 286 286 286 286 286 287 287 287 287 286 287 287 287 286 286 287 287 287 287 287 288 288 288 289 290 291 291 291 291 291 291 291 291 291 292 292 293 295 297 297 297 296 296 296 295 296 296 297 295 294 295 294 294 293 293 294 294 294 293 293 292 289 289 290 289 290
287 287 286 286 286 286 286 286 286 287 286 286 286 286 286 286 286 286 286 287 288 287 287 286 286 286 286 287 286 287 287 287 288 289 288 289 289 289 289 289 290 291 292 292 292 293 294 296 296 294 292 291 290 289 290 294 296 296 292 291 293 292 293 293 293 293 292 291 291 289 287 287 288 289
286 286 287 287 287 287 286 287 286 287 287 287 286 286 286 286 286 287 288 287 288 287 287 287 286 287 287 287 287 287 286 287 286 287 287 288 288 288 287 287 287 289 290 291 292 293 293 293 294 294 291 289 287 285 286 290 292 295 294 291 290 292 291 291 290 290 291 292 291 290 289 289 288 289
286 287 287 287 287 287 287 287 286 286 287 287 286 286 286 286 287 288 288 288 287 287 287 287 287 287 287 288 287 287 287 287 287 287 287 287 287 287 286 287 287 288 289 290 291 292 292 292 291 291 291 288 286 285 285 288 289 290 293 292 288 288 290 288 287 287 288 291 290 290 291 289 288 288
287 286 286 287 287 287 287 287 286 286 287 287 286 286 286 286 286 286 287 287 287 287 287 287 287 287 287 288 288 288 287 287 287 286 287 286 287 286 286 286 286 287 288 287 289 290 290 289 289 289 290 288 287 287 287 286 285 288 291 292 291 289 288 288 287 288 288 287 287 287 287 287 287 287
286 287 287 287 287 287 287 287 287 287 287 287 287 287 286 285 285 285 285 286 286 287 287 287 287 287 287 288 288 289 289 289 287 288 287 287 286 286 286 286 286 286 287 286 286 287 287 287 288 288 288 288 288 288 288 288 288 290 289 291 292 292 290 289 288 287 287 288 289 287 286 288 287 288
286 286 287 287 287 287 287 287 287 287 287 287 287 286 287 287 286 285 285 285 285 285 286 287 287 287 287 287 287 288 288 288 288 288 288 288 287 286 286 286 286 286 286 285 286 286 285 287 288 288 291 291 291 293 290 287 285 286 286 288 290 292 292 292 291 289 288 289 289 287 287 287 287 287
286 286 287 287 287 287 287 287 287 287 287 287 287 286 286 286 286 286 285 284 285 284 285 286 286 287 287 287 287 287 287 287 287 287 287 287 288 287 286 286 286 286 285 285 285 285 288 291 290 291 291 290 290 288 286 285 284 285 285 287 288 290 291 291 291 291 292 290 288 286 286 286 288 286
286 286 286 287 287 287 287 287 287 287 286 286 286 286 286 286 286 285 285 284 284 284 284 285 286 286 287 287 287 287 286 286 286 287 287 287 287 287 286 286 286 286 286 286 287 287 288 290 290 289 289 288 288 287 285 285 286 285 285 285 286 287 288 289 289 288 288 288 288 289 290 289 287 285
286 286 286 287 287 287 287 287 286 286 286 286 286 286 285 285 285 285 284 284 284 283 284 284 285 285 285 286 287 287 287 287 287 287 287 287 287 287 287 287 287 287 287 287 287 287 288 288 288 288 287 286 287 287 286 286 285 286 286 286 286 287 286 288 288 289 288 287 288 288 289 290 289 290
286 286 285 286 287 287 287 287 286 286 286 285 285 285 285 284 284 284 284 284 284 283 284 284 284 284 285 285 286 286 286 287 287 287 287 288 288 288 287 287 287 287 287 288 288 287 288 288 288 288 287 286 286 286 286 286 286 286 286 286 286 286 288 288 288 287 286 286 287 287 288 288 289 288
Wind_Speed
11 10 12 10 10 10 9 10 10 11 10 10 9 8 8 9 10 8 7 8 9 7 10 8 9 12 11 10 9 9 10 11 13 11 11 11 10 15 20 20 20 20 20 20 20 20 19 17 17 17 17 17 17 18 18 17 16 13 12 13 13 9 11 14 15 15 15 16 14 12 11 10 11 11
10 10 11 10 10 10 11 10 10 10 10 10 9 8 10 9 9 9 9 9 7 7 7 8 7 10 12 10 9 9 10 13 15 11 11 11 11 15 19 19 19 20 20 20 20 20 20 19 18 18 19 18 17 17 18 18 16 14 14 16 13 9 11 14 14 13 13 13 13 11 12 12 11 10
9 11 12 11 10 11 12 12 10 10 10 10 10 9 8 9 10 10 10 10 6 7 8 9 8 7 9 9 8 8 9 11 15 12 11 11 13 16 16 21 20 19 20 20 19 19 19 20 20 19 20 19 18 17 18 18 17 17 16 15 13 11 11 15 14 13 12 12 12 12 12 12 10 9
8 10 11 11 10 11 11 11 11 11 10 10 10 9 9 9 10 10 8 9 12 5 6 5 6 6 8 10 10 10 10 10 16 10 10 11 14 12 10 17 20 20 20 20 19 20 19 19 20 19 21 21 20 18 18 18 18 18 17 15 14 12 12 15 15 14 13 13 14 13 13 11 10 9
10 10 11 12 12 12 12 11 11 11 11 11 8 8 8 8 9 9 7 8 11 6 4 4 6 8 8 10 12 11 11 10 11 12 11 10 10 9 9 12 18 20 20 20 20 20 19 19 20 20 21 20 19 20 19 19 19 19 18 16 15 13 14 15 16 14 14 15 15 14 13 13 12 10
10 11 12 13 14 14 14 14 14 12 12 12 10 8 8 7 10 9 8 9 10 11 4 6 5 6 10 10 10 11 11 10 9 11 10 9 10 9 8 8 10 21 19 20 21 20 20 19 19 20 21 20 20 20 19 19 19 19 18 17 16 15 15 16 16 14 15 15 14 14 13 13 12 10
12 12 11 12 12 11 13 13 13 14 15 14 12 12 8 8 10 9 11 10 10 10 8 6 6 7 7 10 8 10 10 10 10 10 10 10 8 8 9 9 8 17 19 21 20 20 20 19 20 20 21 20 20 20 20 20 19 19 18 17 16 15 15 16 17 16 15 15 15 14 13 12 11 10
12 12 12 12 12 12 11 12 13 12 11 12 14 14 11 10 10 8 8 11 10 8 9 6 9 7 7 8 8 8 9 10 10 11 10 11 11 10 10 10 8 13 20 20 20 19 19 20 20 21 21 21 20 21 20 20 19 19 19 18 17 15 16 16 17 16 16 15 15 14 13 12 11 10
12 12 11 12 13 12 12 12 13 12 15 13 11 12 13 11 9 8 7 9 10 9 9 7 6 5 7 6 7 8 8 8 8 8 9 9 10 9 9 8 8 12 21 20 20 19 19 20 21 21 21 21 21 21 21 20 20 20 19 18 17 16 16 16 17 16 16 15 15 14 12 11 11 11
12 12 12 12 12 12 11 11 11 11 15 14 14 15 13 13 12 10 8 6 6 8 8 7 5 5 7 6 7 9 9 9 8 9 8 8 9 9 8 8 7 6 7 6 10 13 16 19 21 21 21 21 22 21 21 20 20 20 20 19 18 17 16 17 16 16 16 15 14 13 12 11 11 11
13 13 12 12 11 11 11 11 11 12 13 12 15 13 13 13 12 13 9 7 8 8 7 6 6 6 6 7 7 7 9 10 10 11 9 7 6 9 11 8 6 7 8 12 15 13 13 16 15 19 21 22 22 21 21 21 21 20 20 19 18 17 16 17 16 16 16 15 14 14 13 13 11 11
12 13 13 12 12 12 12 12 11 11 10 11 13 12 11 12 13 11 12 9 7 8 8 8 7 7 7 6 7 7 8 8 7 9 9 12 10 8 9 10 10 8 10 10 8 11 12 13 17 18 20 21 21 22 20 21 21 21 19 19 18 17 17 17 17 16 16 15 15 14 14 13 11 9
12 12 12 12 13 16 19 20 16 14 14 11 13 14 12 13 12 12 10 10 9 8 8 8 8 8 8 8 8 8 9 12 13 8 8 10 10 9 10 9 8 10 11 9 10 9 9 10 11 10 10 11 18 18 20 17 22 21 19 19 19 18 18 17 17 16 16 15 15 14 13 12 11 10
14 14 13 13 21 22 21 21 18 16 15 14 11 11 12 13 13 11 11 10 10 9 9 9 8 9 9 9 10 10 11 11 8 9 10 10 11 10 9 7 6 9 10 10 10 10 9 11 9 9 11 11 14 9 10 10 14 18 20 19 19 18 18 17 17 17 16 15 14 14 12 12 12 11
15 14 14 13 16 18 19 20 21 20 22 22 20 18 17 14 11 13 12 10 9 10 10 9 9 10 11 10 9 11 10 9 10 10 11 11 10 12 12 10 4 8 13 11 10 8 8 10 10 10 10 12 11 9 12 16 19 20 20 20 20 19 18 18 17 16 16 15 14 14 13 12 12 12
13 14 14 13 12 13 17 19 18 22 25 24 24 23 21 18 14 12 12 12 12 10 10 10 10 9 10 10 9 9 9 9 10 11 11 11 11 12 12 11 12 9 13 11 11 12 8 9 9 10 11 13 12 12 13 18 19 20 21 20 20 19 18 18 17 16 16 15 14 14 13 13 13 13
14 14 14 14 13 12 22 18 17 20 22 26 25 24 22 18 17 17 14 13 14 12 12 11 11 10 8 9 9 10 10 10 12 11 11 11 12 13 13 12 9 7 14 12 11 12 9 11 9 10 10 10 8 10 14 18 19 20 20 20 19 18 18 17 17 16 15 14 14 14 14 14 14 14
14 14 14 14 14 15 16 15 18 21 20 20 20 18 16 15 17 17 18 16 15 12 11 10 12 10 7 10 9 10 10 11 11 11 12 12 12 12 14 10 8 6 13 15 11 9 9 11 9 9 9 10 8 10 13 18 17 18 18 19 18 18 18 17 17 15 14 14 14 14 15 15 15 15
13 14 13 15 14 15 15 15 22 20 20 20 17 17 17 16 14 13 12 13 13 13 10 8 10 13 10 9 8 8 8 12 13 14 15 16 15 9 4 6 6 6 8 7 11 13 11 9 11 11 8 8 9 8 12 16 17 17 17 18 18 18 18 17 16 15 15 15 15 15 16 16 15 14
12 13 14 14 15 16 17 21 25 23 20 18 18 17 16 16 15 12 11 15 16 14 13 13 13 10 10 10 9 9 9 9 10 7 2 4 7 10 9 10 6 9 10 11 12 7 9 11 12 10 6 6 8 7 8 15 18 17 17 18 19 19 18 17 16 16 17 16 17 17 16 16 15 15
12 13 15 15 15 17 17 23 24 24 23 16 17 16 17 16 15 14 13 15 18 18 20 21 19 18 18 15 13 12 14 12 11 8 8 9 10 10 10 9 8 10 10 9 11 6 9 8 8 8 6 8 7 6 7 7 15 17 17 17 18 18 18 17 17 18 18 17 18 17 17 17 16 17
12 14 22 20 17 18 19 24 23 23 20 16 16 15 18 18 17 16 14 13 15 18 18 18 18 16 15 14 14 11 12 15 13 11 12 12 11 12 12 11 10 6 9 12 12 10 9 9 9 9 4 4 2 4 4 5 10 15 15 17 17 18 18 18 18 18 18 19 18 19 19 19 18 11
13 13 15 23 20 19 21 23 22 22 20 15 15 14 15 16 16 16 16 17 18 16 13 12 10 8 8 8 8 9 11 12 14 13 13 11 13 12 11 9 8 7 8 9 10 9 7 12 10 11 8 5 1 1 3 6 7 9 9 10 12 17 18 18 18 18 19 19 20 21 21 21 16 8
13 14 14 16 18 22 23 22 22 21 22 16 14 13 13 15 17 16 17 15 15 14 8 9 9 7 5 5 4 4 5 6 10 11 11 11 13 13 12 12 13 13 10 10 15 11 5 10 11 8 9 10 7 5 3 4 8 9 10 10 10 15 17 17 14 19 19 20 21 21 22 20 16 10
12 13 13 9 17 23 23 22 22 21 21 20 14 12 13 14 18 19 13 15 17 11 11 8 7 7 6 5 5 5 6 3 4 7 8 9 12 13 12 11 12 10 5 12 20 11 8 11 11 10 3 3 5 8 5 6 6 8 10 10 11 9 9 10 10 11 16 20 21 22 20 18 17 13
12 11 10 10 17 23 22 22 22 22 21 21 13 16 21 23 23 17 12 10 9 8 9 10 9 9 8 7 8 7 6 5 6 6 5 6 10 11 12 14 14 11 8 11 22 12 11 12 14 13 6 6 4 7 9 5 5 6 7 8 8 10 11 10 9 10 9 10 11 13 13 16 14 16
11 10 12 12 21 21 22 22 22 20 22 17 16 23 23 22 23 17 11 11 11 9 9 10 10 10 9 9 8 7 8 7 6 6 6 4 5 7 5 4 6 7 4 12 19 15 13 10 11 16 11 9 10 5 6 8 6 6 6 7 9 10 8 9 9 10 10 10 9 15 14 14 14 13
8 8 11 15 20 20 21 21 21 19 19 17 22 22 24 22 19 13 12 12 12 10 11 11 11 11 10 8 8 8 7 8 8 6 6 5 2 3 3 3 5 6 10 11 10 7 6 9 11 9 14 14 12 12 10 3 5 9 10 7 8 8 8 9 9 10 9 10 10 10 9 9 8 10
9 13 18 19 18 18 19 20 18 16 18 21 21 22 22 19 12 13 11 11 11 12 12 11 10 10 11 10 8 7 7 7 8 8 7 6 5 3 5 6 6 5 7 10 12 11 10 12 12 9 9 12 12 9 9 10 10 7 9 12 9 7 8 8 10 12 10 9 8 8 8 8 8 8
16 16 17 18 17 16 16 14 13 12 15 18 20 20 21 13 12 12 12 11 12 12 10 11 12 11 9 9 8 8 9 10 10 8 8 7 8 5 2 6 6 5 3 7 11 10 8 9 10 11 10 7 10 11 10 14 10 8 9 9 10 9 8 10 11 10 11 11 9 9 6 6 8 7
9 13 13 12 14 12 15 15 14 15 17 15 16 14 14 13 12 12 12 11 10 11 11 10 10 9 8 7 10 11 12 12 10 8 7 8 9 7 6 5 5 5 5 4 2 5 6 9 11 12 11 9 8 10 11 13 14 10 9 10 14 14 12 11 10 10 10 10 9 9 8 7 6 6
9 9 10 11 8 10 11 12 12 13 13 13 13 13 13 13 13 14 15 14 11 11 10 10 10 10 11 12 12 11 12 11 11 10 9 8 10 10 8 6 7 5 5 5 5 5 6 7 9 6 8 13 13 9 8 9 13 13 12 10 7 9 11 13 12 10 11 11 11 10 8 7 7 6
9 8 7 9 10 10 12 12 13 13 13 13 13 15 14 13 13 13 12 13 12 11 11 12 11 11 11 12 12 11 12 12 11 11 10 10 9 9 10 11 9 8 6 5 6 6 7 8 8 10 10 8 9 15 16 11 8 10 14 12 11 12 10 10 11 12 12 13 11 10 9 8 6 6
8 10 10 10 10 10 11 11 12 12 12 12 13 13 14 13 13 13 12 12 11 10 11 10 10 11 10 11 11 11 12 11 11 12 12 11 10 11 10 10 10 9 8 8 6 6 9 11 13 13 14 14 12 9 5 14 14 10 10 11 13 11 10 11 10 10 10 10 12 11 9 8 7 5
9 9 8 9 11 10 10 10 10 11 12 12 11 12 12 11 13 13 12 12 10 11 10 10 10 9 10 10 11 11 11 11 11 11 11 11 12 11 10 10 10 10 10 10 9 7 4 11 14 13 12 12 12 12 17 8 16 13 11 11 10 13 13 10 10 10 10 9 10 11 8 7 6 5
9 9 8 8 8 9 9 8 9 10 10 10 10 11 12 13 12 12 12 11 11 11 11 11 10 10 10 10 10 10 10 10 10 10 11 11 11 11 11 11 10 10 10 10 9 8 6 4 8 14 13 11 12 10 5 15 12 14 17 12 11 12 12 11 10 9 9 8 8 10 9 9 6 4
8 9 9 9 9 9 7 8 9 10 11 11 11 10 9 10 11 11 12 12 12 11 11 11 11 10 10 10 10 10 9 10 9 10 10 9 9 10 10 10 10 11 12 11 9 10 9 9 7 8 13 13 13 13 8 3 16 14 15 18 12 12 13 11 11 10 8 9 7 6 7 8 6 6
7 8 9 9 9 9 9 9 9 10 10 10 10 10 9 9 9 11 11 11 11 10 11 11 11 11 10 10 10 10 9 9 9 9 9 10 10 10 10 10 10 10 10 11 12 11 10 10 10 8 7 12 16 18 15 9 8 9 11 16 16 11 10 11 10 9 8 6 6 6 6 8 6 6
6 7 8 8 9 9 8 9 8 8 9 11 11 10 10 10 9 10 10 10 11 11 11 11 11 10 11 10 9 9 9 9 9 8 10 10 10 10 10 10 10 9 10 11 11 11 12 11 11 9 8 9 10 9 11 13 11 9 10 14 15 12 9 9 10 9 9 8 8 8 9 8 9 10
7 6 6 8 8 7 8 8 7 7 8 9 8 8 9 9 10 10 10 9 9 10 10 10 11 11 10 10 9 8 9 11 10 9 9 9 9 10 9 9 9 8 10 11 12 11 12 11 10 10 11 12 11 11 13 13 10 10 10 9 10 12 11 9 10 10 9 8 8 9 8 5 5 2
6 7 7 7 7 7 7 7 7 7 7 7 8 8 10 8 10 10 7 7 6 8 8 10 10 10 9 9 9 10 10 10 9 10 10 10 11 10 11 9 9 8 10 11 11 12 12 8 8 11 12 10 11 11 13 11 10 9 9 8 12 12 11 9 10 10 8 8 8 8 8 7 6 5
6 7 7 6 6 7 6 6 6 7 7 7 8 9 9 8 7 10 11 11 11 9 7 7 8 8 9 8 7 7 10 11 10 9 9 9 9 10 11 9 9 9 9 9 10 9 7 7 9 10 8 7 8 11 11 11 10 8 7 7 7 10 14 15 14 11 8 9 11 9 6 5 4 5
6 6 6 6 6 6 6 6 6 6 7 7 7 7 7 8 7 9 8 9 8 7 8 7 7 6 6 6 6 7 6 7 7 7 8 9 9 9 9 9 8 7 8 9 8 8 9 8 8 8 8 8 7 9 9 7 7 8 7 7 7 7 9 14 16 16 14 13 10 3 3 6 7 5
5 6 6 5 5 6 6 6 6 6 6 7 6 7 8 7 8 7 7 7 7 7 7 7 7 7 7 7 5 6 5 5 5 6 6 6 7 7 7 7 8 8 7 8 7 7 7 7 7 6 8 7 6 9 9 9 7 7 6 7 7 8 8 6 8 10 11 13 14 8 4 3 2 4
5 5 5 5 5 5 5 5 5 6 6 5 6 7 7 7 7 7 7 7 7 8 7 7 7 7 7 6 6 7 6 6 6 5 5 5 5 6 6 6 7 7 7 5 6 7 6 6 6 7 8 7 6 8 7 8 9 8 8 8 9 7 6 6 7 6 5 5 12 12 4 7 10 14
Wind_Direction
323 321 320 315 307 299 293 285 277 266 260 260 262 254 254 259 259 264 250 236 243 218 203 217 211 207 208 206 195 192 206 201 192 191 195 198 199 197 200 200 199 195 195 194 193 192 193 193 188 185 186 180 176 172 167 168 172 173 174 184 188 179 173 165 175 178 174 172 169 168 165 141 137 136
326 323 323 319 313 311 303 297 290 276 269 266 260 254 244 241 251 254 257 258 215 234 206 210 209 203 207 201 196 200 201 198 192 194 194 197 204 192 196 198 199 194 193 194 193 192 192 190 187 185 184 180 176 172 167 167 170 175 181 185 186 169 166 162 173 180 180 176 165 156 145 148 144 147
328 327 323 320 314 314 309 304 297 289 279 269 258 253 246 244 243 250 255 261 235 202 215 216 212 195 199 202 199 200 204 199 194 197 193 196 195 192 195 195 196 194 192 193 192 190 190 190 190 187 183 181 177 172 170 169 169 177 185 186 185 171 170 167 174 183 185 171 156 154 154 152 154 156
316 319 321 318 316 315 310 306 305 300 290 278 269 255 250 246 243 244 244 237 256 201 221 205 205 195 190 205 208 203 206 201 194 198 198 197 190 190 192 192 195 194 192 192 192 190 189 189 188 189 184 181 176 172 172 171 171 175 184 184 182 173 175 172 174 184 182 166 161 160 160 161 164 169
324 320 321 322 320 321 315 310 306 302 298 295 273 259 252 247 244 242 237 240 249 242 201 201 202 198 194 206 203 203 207 201 199 198 198 193 188 187 187 192 194 193 192 192 191 190 189 188 188 187 184 179 175 171 171 171 172 173 182 183 180 174 177 175 173 180 176 168 166 164 168 170 174 176
329 326 328 338 343 338 332 330 326 318 307 298 291 271 260 253 254 233 241 243 242 244 194 225 211 212 202 217 199 201 199 205 196 195 194 188 187 187 188 182 192 194 193 191 191 190 188 187 188 185 181 177 174 171 169 171 172 174 181 182 180 177 178 176 171 174 171 168 165 166 170 174 176 177
340 342 339 340 340 341 339 340 338 340 337 323 302 288 270 266 261 246 225 233 235 236 228 204 205 206 198 208 198 199 202 196 183 181 196 190 186 187 185 189 190 191 194 192 190 188 186 186 185 182 180 176 172 171 170 171 172 175 179 181 181 179 179 177 171 172 169 165 164 167 169 172 173 171
340 340 339 342 339 337 339 342 342 342 338 336 331 314 285 267 268 255 240 226 235 233 234 204 208 203 197 215 205 198 198 190 189 194 193 191 190 183 186 189 191 185 191 191 189 187 185 184 184 182 179 175 172 171 172 172 174 175 179 180 182 179 179 177 173 172 170 167 167 170 171 172 170 170
340 340 341 338 338 341 339 341 343 342 340 334 328 327 325 303 268 259 250 244 234 227 222 223 215 196 209 204 205 197 195 193 193 192 192 185 186 182 187 188 189 177 188 190 188 185 184 184 183 181 180 176 173 173 172 175 175 177 179 180 181 181 179 180 176 172 172 170 171 172 173 171 174 176
339 339 337 339 338 341 344 338 336 340 340 336 329 327 328 327 313 281 255 236 242 242 238 226 212 195 203 200 207 199 198 190 190 191 190 187 187 184 177 183 180 158 166 171 190 187 184 184 183 182 179 177 175 175 174 176 177 178 180 180 181 180 180 181 180 176 173 172 173 173 171 170 175 181
344 339 336 334 336 338 343 341 338 338 337 334 326 323 324 323 325 319 287 250 233 228 233 233 220 210 211 199 202 193 201 202 195 186 184 178 179 187 185 175 163 160 170 187 184 187 190 186 185 182 180 178 177 177 177 177 178 179 180 180 179 179 180 180 181 179 176 175 175 174 169 172 177 181
344 342 339 337 335 337 343 342 337 343 333 327 321 321 323 324 325 318 315 289 245 234 226 222 219 220 213 210 209 195 194 202 206 196 173 185 185 189 190 185 171 169 163 167 185 187 185 182 187 182 181 180 179 179 179 179 179 179 181 179 179 178 179 180 181 180 179 177 177 175 172 174 174 172
343 344 342 337 332 335 339 338 338 337 334 329 322 320 323 324 320 312 307 305 273 243 233 228 216 217 217 211 202 192 185 194 198 184 174 196 191 189 188 191 181 168 166 165 168 175 186 182 186 181 186 187 182 181 180 181 181 181 180 180 179 180 180 180 181 181 180 180 178 176 174 169 161 160
345 344 342 335 335 337 337 337 336 333 328 323 311 308 316 316 313 304 302 296 294 272 246 234 220 215 220 213 205 203 204 203 187 176 186 185 188 180 194 186 174 168 166 160 170 185 176 183 175 173 183 183 185 180 185 182 181 181 179 181 182 182 181 181 183 182 181 179 177 174 168 161 159 157
342 342 340 336 336 338 338 338 338 334 332 330 325 318 308 295 288 298 297 287 289 288 262 246 230 224 225 219 207 207 201 192 182 191 191 188 172 178 178 187 167 183 168 176 163 168 171 178 174 178 181 180 183 186 192 184 183 180 182 183 184 183 183 183 184 183 180 177 174 169 163 159 157 155
342 340 339 338 336 336 339 340 337 334 333 331 327 323 317 310 294 249 250 282 291 283 283 261 237 228 224 220 208 208 198 189 191 196 190 185 178 187 193 188 190 184 178 171 175 175 162 180 173 174 187 186 185 191 184 182 184 182 183 184 184 183 183 184 184 182 180 176 171 162 156 156 156 154
344 343 340 339 337 336 339 340 338 338 333 329 327 321 316 310 312 314 290 255 249 265 267 279 266 233 221 223 218 200 198 184 196 192 194 190 190 193 193 198 175 161 178 170 174 170 162 174 176 185 183 182 168 184 186 184 184 183 183 182 182 182 182 183 183 182 178 171 161 155 155 155 156 156
344 344 342 340 338 338 338 336 339 337 332 330 326 324 322 318 317 316 310 305 293 263 251 259 267 265 224 224 214 210 195 188 195 191 201 190 193 196 202 195 180 158 175 179 163 173 154 175 170 184 182 181 176 188 185 183 184 182 180 180 179 180 181 181 181 179 170 159 154 154 154 155 156 156
344 344 342 342 340 339 337 336 338 334 332 330 324 321 319 318 313 309 313 315 316 310 296 254 247 262 261 240 226 210 200 194 193 196 197 193 195 181 107 77 120 148 193 181 163 182 178 176 158 174 176 178 188 189 178 177 180 181 180 179 179 178 179 178 175 167 157 154 155 153 154 156 154 150
347 346 345 346 343 340 337 338 335 334 333 329 327 323 319 319 316 306 303 298 298 296 296 295 288 273 260 261 238 215 195 196 201 190 99 98 132 155 176 182 152 173 184 183 183 167 168 178 180 172 144 164 186 174 182 176 176 180 181 180 178 177 175 172 164 158 157 157 155 153 153 150 144 139
346 348 349 349 347 342 340 338 334 334 335 332 330 326 324 320 318 311 314 310 302 297 295 291 281 273 277 281 285 258 198 190 185 160 168 171 160 173 188 189 167 189 169 189 190 147 152 177 166 144 158 165 177 180 182 169 178 176 179 179 177 174 171 165 160 159 159 156 153 151 147 141 137 130
347 348 350 352 349 345 341 336 335 335 338 335 330 329 328 327 324 319 320 318 309 299 292 285 276 271 270 267 259 262 237 199 173 169 188 183 170 188 191 187 184 166 182 193 182 163 174 156 150 137 100 68 36 172 150 159 172 174 176 177 175 172 167 162 161 160 158 154 151 147 143 140 137 133
348 347 350 350 345 344 340 336 337 337 341 334 332 332 330 327 323 318 317 313 309 309 313 309 307 288 269 258 247 243 231 217 189 186 190 173 182 189 194 183 154 168 208 195 175 176 144 157 164 143 133 164 131 78 150 170 168 174 166 172 173 171 164 163 161 157 154 151 150 148 146 146 141 127
348 349 347 342 342 342 341 340 341 340 342 341 335 337 334 329 324 319 313 308 308 308 286 285 295 304 328 324 315 286 229 197 214 202 189 182 185 185 187 185 182 193 187 176 180 177 151 165 158 179 164 149 177 167 142 170 177 173 169 165 167 169 160 157 159 156 152 152 151 149 148 150 145 133
347 346 343 327 341 343 342 343 342 343 344 345 344 341 334 324 317 319 313 321 323 344 351 353 356 355 358 3 2 355 335 302 245 225 211 191 190 187 189 187 190 208 161 176 175 160 156 167 160 156 109 93 112 133 154 151 168 169 168 166 159 157 155 160 154 154 150 150 151 150 150 150 148 140
350 342 339 336 339 341 344 345 345 344 347 346 354 342 336 333 337 335 322 320 332 356 14 13 6 358 359 4 5 360 357 356 338 312 265 220 202 201 193 185 184 199 192 172 172 168 140 166 164 159 148 121 119 123 132 153 158 163 157 159 152 159 163 154 146 143 142 144 145 149 146 143 139 137
342 342 342 339 343 343 345 346 345 346 349 354 350 346 345 342 342 341 342 338 346 357 13 25 17 357 356 3 4 360 353 347 340 322 295 285 248 218 217 198 194 195 130 161 180 171 164 158 167 161 159 137 130 135 135 144 161 146 138 143 147 154 156 149 140 141 140 138 131 128 120 113 112 108
337 335 343 342 339 344 347 346 346 346 354 354 351 353 350 348 348 349 346 354 352 356 9 19 22 2 347 349 2 4 355 348 344 336 329 317 287 229 180 98 85 113 146 166 172 169 147 147 166 171 147 144 145 152 155 63 117 150 141 132 132 137 143 142 133 125 126 126 130 134 128 125 120 109
342 337 335 338 342 345 349 348 349 351 353 352 356 359 356 354 356 354 352 350 357 8 10 9 17 12 351 343 339 345 1 5 11 4 357 356 3 29 81 71 75 78 142 164 174 173 160 160 167 155 148 148 149 152 142 144 144 143 139 134 133 141 136 132 135 134 131 125 125 129 131 132 130 127
340 342 341 344 346 351 354 355 358 355 354 352 360 2 2 1 358 357 355 355 1 6 5 9 12 6 346 344 346 9 21 25 16 10 13 7 7 357 69 93 52 47 43 170 176 169 153 151 156 151 146 143 142 141 140 132 137 139 144 129 113 103 120 132 132 128 134 134 127 124 115 116 122 127
345 343 343 344 341 346 346 356 357 359 358 2 4 5 4 1 0 0 0 359 0 2 4 7 8 3 352 346 12 22 27 24 10 2 26 32 14 7 356 59 65 55 37 37 126 164 152 149 148 152 146 135 122 140 150 139 130 139 140 143 148 148 151 136 133 134 132 120 113 104 101 95 90 91
340 337 330 338 346 351 359 3 7 7 5 3 2 3 2 3 1 358 355 1 5 7 5 9 6 9 7 18 17 21 30 25 15 5 22 33 41 25 15 36 23 16 46 58 63 69 99 122 131 124 139 145 136 128 122 134 139 139 134 138 113 110 132 139 132 127 124 121 109 104 99 97 100 92
347 343 342 353 355 0 0 2 4 4 4 3 3 3 4 3 2 2 7 6 3 360 6 11 9 8 12 17 18 21 28 25 20 11 24 26 37 46 49 41 31 22 24 38 58 72 79 74 79 98 90 70 105 132 132 120 119 131 137 130 127 124 125 120 122 124 125 110 106 104 94 86 85 95
356 355 354 358 357 356 360 360 1 2 2 2 2 1 0 3 3 3 5 6 1 360 8 10 12 11 10 19 20 25 25 21 22 20 27 25 28 43 42 47 35 26 28 25 31 77 102 99 94 82 84 80 68 49 93 130 127 127 119 126 124 118 113 116 114 113 109 117 119 108 98 82 74 71
4 358 357 355 357 357 357 1 358 358 1 3 0 0 1 4 2 2 5 0 359 5 8 11 13 13 17 20 20 25 24 26 22 21 22 29 33 37 38 44 39 37 33 29 25 8 71 118 113 104 96 97 80 56 31 39 133 118 118 110 119 117 118 112 109 106 107 106 106 110 108 94 84 71
359 359 358 353 355 352 353 354 351 356 359 356 0 1 3 2 1 2 3 355 2 8 11 10 12 14 16 19 23 24 22 23 26 24 24 25 28 31 37 39 36 35 38 39 29 22 14 33 118 124 124 117 109 96 70 21 38 136 120 117 111 109 107 105 103 106 106 106 113 124 124 131 123 115
360 355 356 356 353 352 344 346 350 353 356 357 358 1 359 358 357 357 354 357 10 12 11 12 14 14 18 20 24 26 24 25 27 24 25 22 28 30 37 35 36 34 38 32 33 33 31 34 23 104 119 113 108 108 80 33 41 25 126 116 110 112 116 113 110 104 113 121 119 116 126 125 122 120
354 353 352 354 354 351 349 346 346 350 353 356 357 355 355 353 352 355 356 7 7 9 11 16 14 15 18 20 25 26 25 28 28 29 26 25 29 31 31 34 30 34 40 41 37 33 38 44 43 26 83 111 119 110 113 87 80 33 25 113 119 119 111 115 111 115 112 103 102 98 104 115 113 114
349 350 353 350 353 352 351 348 343 345 347 355 357 358 353 356 356 356 359 2 2 8 11 16 16 16 20 18 22 26 28 26 28 26 28 30 31 32 32 32 33 25 38 45 44 44 43 43 42 42 54 83 92 103 106 110 78 81 56 77 109 110 119 118 115 114 117 106 91 75 72 81 83 95
340 347 348 350 349 348 350 349 347 343 348 351 347 350 357 358 1 1 359 356 357 1 9 12 13 16 20 18 17 21 31 32 30 29 30 34 35 36 34 33 35 31 44 44 47 45 51 46 49 58 70 71 84 88 91 86 85 77 68 46 87 124 131 131 122 123 109 111 112 110 112 109 98 74
337 345 347 346 345 346 343 344 343 341 347 345 347 348 353 352 0 2 356 356 352 358 0 7 8 12 16 15 15 21 27 28 30 29 30 36 40 41 38 38 42 31 50 50 48 49 41 37 47 63 79 90 92 92 85 82 78 79 70 61 53 78 97 111 129 132 121 124 118 115 119 120 125 127
334 339 335 344 344 340 343 342 346 347 345 344 350 352 347 351 358 353 356 2 5 1 357 359 359 3 11 13 13 15 30 30 29 29 29 32 38 39 41 45 48 41 46 41 37 36 26 27 37 37 39 55 71 87 90 98 99 87 84 75 60 59 75 78 69 72 103 136 137 123 107 103 109 129
333 337 336 336 338 341 346 345 347 348 344 344 349 346 349 351 356 1 359 358 358 360 359 354 356 357 358 360 6 19 18 19 14 19 30 34 37 44 44 46 48 50 52 55 48 48 42 36 33 44 49 58 57 82 87 87 89 93 88 83 80 80 69 75 82 76 64 48 34 61 127 150 145 155
326 326 329 329 337 341 345 348 344 350 348 348 340 342 352 353 353 354 359 356 357 358 353 359 357 359 356 357 359 18 20 23 23 24 26 26 40 44 52 51 53 56 59 64 65 59 59 51 40 48 63 61 71 86 89 90 86 91 94 96 101 99 99 99 87 73 60 41 25 12 53 91 274 162
311 313 320 325 331 338 342 341 345 348 350 348 344 347 347 352 354 352 0 357 356 352 358 359 358 356 355 1 9 11 2 13 29 34 31 31 36 45 47 51 53 55 53 51 68 67 60 62 58 58 66 63 61 77 78 89 100 100 101 103 105 107 114 113 101 81 57 49 11 9 58 87 100 105